New Orleans Lakefront, LA

3:32 PM CDT on April 24, 2017 (GMT -0500)
Lakefront

Weather History for KNEW - July, 2013

Change the Weather History Date:

Sunday, July 21, 2013

  Actual Average Record
Temperature  
Mean Temperature 78 °F 83 °F  
Max Temperature 82 °F 91 °F 99 °F (2016)
Min Temperature 73 °F 75 °F 68 °F (1984)
Degree Days  
Heating Degree Days 0 0  
Month to date heating degree days 0 0  
Since 1 June heating degree days 0 0  
Since 1 July heating degree days 0 0  
Cooling Degree Days 13 18  
Month to date cooling degree days 352 378  
Year to date cooling degree days 1386 1492  
Since 1 June cooling degree days 893 873  
Growing Degree Days 28 (Base 50)    
Moisture  
Dew Point 74 °F    
Average Humidity 84    
Maximum Humidity 94    
Minimum Humidity 74    
Precipitation  
Precipitation 0.37 in 0.17 in 0.91 in (1982)
Month to date precipitation 3.90 4.17  
Year to date precipitation 43.02 36.47  
Snow  
Snow 0.00 in - - ()
Month to date snowfall 0.0  
Since 1 June snowfall 0.0  
Since 1 July snowfall 0.0  
Snow Depth 0.00 in    
Sea Level Pressure  
Sea Level Pressure 30.02 in    
Wind  
Wind Speed 8 mph (SSW)    
Max Wind Speed 25 mph    
Max Gust Speed 30 mph    
Visibility 9 miles    
Events Rain    
T = Trace of Precipitation, MM = Missing Value Source: NWS Daily Summary

Daily Weather History Graph

Daily Weather History Graph

Search for Another Location

Airport or City:

Trip Planner

Search our weather history database for the weather conditions in past years. The results will help you decide how hot, cold, wet, or windy it might be!

Date:

Astronomy

Jul. 21, 2013 Rise Set
Actual Time 6:12 AM CDT 8:00 PM CDT
Civil Twilight 5:46 AM CDT 8:26 PM CDT
Nautical Twilight 5:14 AM CDT 8:58 PM CDT
Astronomical Twilight 4:40 AM CDT 9:32 PM CDT
Moon 7:01 PM CDT (7/21) 4:57 AM CDT (7/21)
Length of Visible Light 14h 40m
Length of Day
13h 47m
Waxing Gibbous, 98% of the Moon is Illuminated
Jul 21
Waxing Gibbous
Jul 22
Full
Jul 29
Last Quarter
Aug 6
New
Aug 14
First Quarter

Hourly Weather History & Observations

Time (CDT) Temp. Heat Index Dew Point Humidity Pressure Visibility Wind Dir Wind Speed Gust Speed Precip Events Conditions
12:53 AM 81.0 °F 86.7 °F 75.0 °F 82% 29.99 in 10.0 mi SSW 5.8 mph - N/A   Partly Cloudy
1:53 AM 80.1 °F 85.1 °F 75.0 °F 85% 29.98 in 10.0 mi SSW 5.8 mph - N/A   Clear
2:53 AM 80.1 °F 85.1 °F 75.0 °F 85% 29.99 in 10.0 mi SSW 6.9 mph - N/A   Clear
3:53 AM 80.1 °F 85.1 °F 75.0 °F 85% 29.99 in 10.0 mi SSW 5.8 mph - N/A   Clear
4:53 AM 80.1 °F 84.5 °F 73.9 °F 81% 29.99 in 10.0 mi SSW 3.5 mph - N/A   Clear
5:53 AM 79.0 °F - 73.9 °F 84% 30.00 in 10.0 mi Calm Calm - N/A   Clear
6:53 AM 79.0 °F - 75.0 °F 88% 30.00 in 10.0 mi SE 3.5 mph - N/A   Clear
7:53 AM 82.0 °F 88.6 °F 75.0 °F 79% 30.01 in 10.0 mi SSE 4.6 mph - N/A   Partly Cloudy
8:53 AM 81.0 °F 86.7 °F 75.0 °F 82% 30.04 in 10.0 mi South 18.4 mph 21.9 mph N/A   Scattered Clouds
9:20 AM 75.2 °F - 73.4 °F 94% 30.05 in 2.5 mi South 11.5 mph - 0.04 in Rain Rain
9:27 AM 77.0 °F - 73.4 °F 89% 30.05 in 7.0 mi SSW 11.5 mph - 0.04 in Rain Light Rain
9:53 AM 79.0 °F - 73.9 °F 84% 30.03 in 10.0 mi South 13.8 mph - 0.04 in   Clear
10:53 AM 81.0 °F 85.8 °F 73.0 °F 77% 30.05 in 10.0 mi SSW 11.5 mph - N/A   Partly Cloudy
11:53 AM 81.0 °F 85.8 °F 73.0 °F 77% 30.07 in 10.0 mi SW 11.5 mph - 0.00 in   Mostly Cloudy
12:16 PM 78.8 °F - 75.2 °F 89% 30.09 in 10.0 mi WSW 26.5 mph 31.1 mph 0.01 in Rain Light Rain
12:23 PM 78.8 °F - 73.4 °F 83% 30.09 in 10.0 mi WSW 26.5 mph - 0.01 in Rain Light Rain
12:53 PM 75.9 °F - 72.0 °F 87% 30.06 in 4.0 mi WSW 23.0 mph 29.9 mph 0.04 in Rain Light Rain
1:53 PM 77.0 °F - 72.0 °F 84% 30.05 in 10.0 mi SW 9.2 mph - 0.04 in   Mostly Cloudy
2:53 PM 78.1 °F - 72.0 °F 81% 30.03 in 10.0 mi SSW 4.6 mph - N/A   Scattered Clouds
3:53 PM 79.0 °F - 73.0 °F 82% 30.01 in 10.0 mi SSW 3.5 mph - N/A   Scattered Clouds
4:53 PM 82.0 °F 87.9 °F 73.9 °F 76% 30.01 in 10.0 mi SW 8.1 mph - N/A   Clear
5:53 PM 82.9 °F 88.8 °F 73.0 °F 72% 30.01 in 10.0 mi SW 9.2 mph - N/A   Clear
6:53 PM 82.0 °F 87.9 °F 73.9 °F 76% 30.01 in 10.0 mi SW 5.8 mph - N/A   Clear
7:53 PM 81.0 °F 86.2 °F 73.9 °F 79% 30.00 in 10.0 mi SSW 4.6 mph - N/A   Clear
8:53 PM 80.1 °F 84.2 °F 73.0 °F 79% 30.01 in 10.0 mi SSE 3.5 mph - N/A   Clear
9:53 PM 80.1 °F 84.5 °F 73.9 °F 81% 30.01 in 10.0 mi SSE 8.1 mph - N/A   Partly Cloudy
10:53 PM 80.1 °F 84.5 °F 73.9 °F 81% 30.03 in 10.0 mi South 8.1 mph - N/A   Clear
11:53 PM 79.0 °F - 75.0 °F 88% 30.04 in 10.0 mi South 8.1 mph - N/A   Clear